User: anonymous   Login
Location: Unspecified
(0.0000°N, 0.0000°E)
Time: 18:01:06
(UTC+00:00)
Language:

TBA - TO BE ASSIGNED - Orbit

View from above orbital plane
View from above orbital plane
View from above satellite
View from above satellite

Ground track
Ground track

The orbit is defined by the following mean orbital elements,

1 68637U          26144.77265250 +.00000000 +00000-0 +41659-4 0 00003
2 68637  88.9877 323.4337 0011458  69.0309 291.2074 13.62578006    03
Epoch (UTC): 24 May 2026 18:32:37
Eccentricity: 0.0011458
inclination: 88.9877°
perigee height: 1018 km
apogee height: 1035 km
right ascension of ascending node: 323.4337°
argument of perigee: 69.0309°
revolutions per day: 13.62578006
mean anomaly at epoch: 291.2074°

The dashed part of the orbit path shows where the satellite is in the earth's shadow,  

DLR